Fort Indiantown Gap, PA

10:35 PM EST on December 08, 2019 (GMT -0500)
Muir Army Air Field

Weather History for KMUI - October, 2019

Change the Weather History Date:

Sunday, October 20, 2019

  Actual Average Record
Temperature  
Mean Temperature 48 °F -  
Max Temperature 53 °F 59 °F 76 °F (2016)
Min Temperature 43 °F 42 °F 26 °F (2008)
Degree Days  
Heating Degree Days 17    
Moisture  
Dew Point 48 °F    
Average Humidity 92    
Maximum Humidity 100    
Minimum Humidity 82    
Precipitation  
Precipitation 0.20 in - - ()
Sea Level Pressure  
Sea Level Pressure 30.00 in    
Wind  
Wind Speed 2 mph (NE)    
Max Wind Speed 7 mph    
Max Gust Speed -    
Visibility 9 miles    
Events Rain    
Averages and records for this station are not official NWS values.
T = Trace of Precipitation, MM = Missing Value Source: NWS Daily Summary

Daily Weather History Graph

Daily Weather History Graph

Search for Another Location

Airport or City:

Astronomy

Oct. 20, 2019 Rise Set
Actual Time 7:22 AM EDT 6:19 PM EDT
Civil Twilight 6:54 AM EDT 6:46 PM EDT
Nautical Twilight 6:22 AM EDT 7:18 PM EDT
Astronomical Twilight 5:51 AM EDT 7:50 PM EDT
Moon 11:25 PM EDT (10/20) 1:49 PM EDT (10/20)
Length of Visible Light 11h 52m
Length of Day
10h 56m
Waning Gibbous, 59% of the Moon is Illuminated
Oct 20
Waning Gibbous
Oct 21
Last Quarter
Oct 27
New
Nov 4
First Quarter
Nov 12
Full

Hourly Weather History & Observations

Time (EDT) Temp. Windchill Dew Point Humidity Pressure Visibility Wind Dir Wind Speed Gust Speed Precip Events Conditions
12:56 AM 45.7 °F - 41.7 °F 86% 30.02 in 10.0 mi Calm Calm - N/A   Partly Cloudy
1:56 AM 45.5 °F 44.2 °F 41.9 °F 87% 30.02 in 10.0 mi NNE 3.5 mph - N/A   Overcast
2:56 AM 45.5 °F - 42.1 °F 88% 30.00 in 10.0 mi Calm Calm - N/A   Scattered Clouds
3:56 AM 43.2 °F - 40.6 °F 91% 29.99 in 10.0 mi Calm Calm - N/A   Mostly Cloudy
4:56 AM 45.1 °F - 42.4 °F 90% 29.99 in 10.0 mi Calm Calm - N/A   Overcast
5:56 AM 45.5 °F - 42.4 °F 89% 29.99 in 10.0 mi Calm Calm - N/A   Mostly Cloudy
6:56 AM 47.1 °F - 42.8 °F 85% 30.01 in 10.0 mi Calm Calm - N/A   Overcast
7:40 AM 48.2 °F - 42.8 °F 82% 30.02 in 10.0 mi NE 3.5 mph - N/A   Light Drizzle
7:56 AM 47.7 °F - 43.7 °F 86% 30.02 in 10.0 mi Calm Calm - 0.00 in Rain Light Rain
8:56 AM 48.4 °F - 45.3 °F 89% 30.04 in 10.0 mi Calm Calm - 0.00 in Rain Light Rain
9:12 AM 48.2 °F - 46.4 °F 93% 30.04 in 9.0 mi Calm Calm - N/A Rain Light Rain
9:28 AM 50.0 °F - 46.4 °F 87% 30.04 in 9.0 mi ENE 3.5 mph - N/A Rain Light Rain
10:56 AM 50.0 °F - 47.5 °F 91% 30.04 in 8.0 mi ENE 3.5 mph - 0.02 in Rain Light Rain
11:44 AM 50.0 °F - 48.2 °F 94% 30.04 in 6.0 mi NE 3.5 mph - N/A Rain Light Rain
11:52 AM 50.0 °F - 48.2 °F 94% 30.04 in 6.0 mi Calm Calm - N/A Rain Light Rain
11:56 AM 50.4 °F - 48.7 °F 94% 30.04 in 5.0 mi ENE 5.8 mph - 0.07 in Rain Light Rain
12:00 PM 50.0 °F - 48.2 °F 94% 30.04 in 5.0 mi Calm Calm - N/A Rain Light Rain
12:08 PM 50.0 °F - 48.2 °F 94% 30.04 in 5.0 mi Calm Calm - N/A Rain Light Rain
12:16 PM 50.0 °F - 50.0 °F 100% 30.04 in 6.0 mi NE 3.5 mph - N/A Rain Light Rain
12:56 PM 51.3 °F - 49.6 °F 94% 30.03 in 7.0 mi NNE 3.5 mph - 0.04 in Rain Light Rain
1:28 PM 51.8 °F - 50.0 °F 94% 30.00 in 9.0 mi NE 4.6 mph - N/A Rain Light Rain
1:52 PM 53.6 °F - 50.0 °F 88% 29.99 in 10.0 mi NE 3.5 mph - N/A   Light Drizzle
1:56 PM 52.9 °F - 50.9 °F 93% 29.99 in 10.0 mi NE 4.6 mph - 0.03 in   Light Drizzle
2:12 PM 53.6 °F - 51.8 °F 94% 29.99 in 8.0 mi NE 3.5 mph - N/A Rain Light Rain
2:56 PM 53.6 °F - 52.0 °F 94% 29.98 in 10.0 mi ENE 5.8 mph - 0.03 in Rain Light Rain
3:16 PM 53.6 °F - 51.8 °F 94% 29.98 in 10.0 mi Calm Calm - N/A   Overcast
3:21 PM 53.6 °F - 51.8 °F 94% 29.98 in 10.0 mi ENE 3.5 mph - N/A   Light Drizzle
3:27 PM 53.6 °F - 51.8 °F 94% 29.98 in 10.0 mi ENE 6.9 mph - N/A   Overcast
3:43 PM 53.6 °F - 51.8 °F 94% 29.97 in 10.0 mi ENE 5.8 mph - N/A   Overcast
3:50 PM 53.6 °F - 51.8 °F 94% 29.97 in 10.0 mi NE 3.5 mph - N/A Rain Light Rain
3:56 PM 53.4 °F - 51.1 °F 92% 29.98 in 10.0 mi NE 4.6 mph - 0.00 in Rain Light Rain
4:08 PM 53.6 °F - 51.8 °F 94% 29.98 in 10.0 mi NNE 4.6 mph - N/A   Overcast
4:46 PM 53.6 °F - 50.0 °F 88% 29.98 in 10.0 mi NNE 4.6 mph - N/A Rain Light Rain
4:56 PM 53.4 °F - 50.9 °F 91% 29.99 in 10.0 mi NE 4.6 mph - 0.01 in Rain Light Rain
5:04 PM 53.6 °F - 50.0 °F 88% 29.98 in 10.0 mi NE 4.6 mph - N/A   Light Drizzle
5:05 PM 53.6 °F - 50.0 °F 88% 29.99 in 10.0 mi NE 4.6 mph - N/A   Overcast
5:56 PM 52.7 °F - 49.5 °F 89% 29.98 in 10.0 mi NNE 3.5 mph - 0.00 in   Overcast
6:24 PM 51.8 °F - 50.0 °F 94% 29.99 in 10.0 mi NNE 4.6 mph - N/A   Light Drizzle
6:54 PM 51.8 °F - 50.0 °F 94% 29.99 in 10.0 mi Calm Calm - N/A   Overcast
6:56 PM 52.2 °F - 49.8 °F 92% 29.99 in 10.0 mi Calm Calm - 0.00 in   Overcast
7:00 PM 51.8 °F - 50.0 °F 94% 29.99 in 10.0 mi Calm Calm - N/A   Light Drizzle
7:12 PM 51.8 °F - 50.0 °F 94% 29.99 in 10.0 mi Calm Calm - N/A   Overcast
7:56 PM 52.2 °F - 49.8 °F 92% 29.99 in 10.0 mi NNE 3.5 mph - 0.00 in   Overcast
8:15 PM 51.8 °F - 50.0 °F 94% 29.99 in 10.0 mi NNE 3.5 mph - N/A   Light Drizzle
8:23 PM 51.8 °F - 50.0 °F 94% 29.99 in 10.0 mi NNE 3.5 mph - N/A   Overcast
8:27 PM 51.8 °F - 50.0 °F 94% 30.01 in 10.0 mi North 3.5 mph - N/A   Light Drizzle
8:56 PM 52.0 °F - 49.6 °F 92% 29.99 in 10.0 mi NNE 4.6 mph - 0.00 in   Light Drizzle
8:58 PM 51.8 °F - 50.0 °F 94% 29.99 in 10.0 mi NNE 4.6 mph - N/A   Overcast
9:56 PM 51.6 °F - 48.7 °F 90% 30.01 in 10.0 mi NE 3.5 mph - 0.00 in   Mostly Cloudy
10:44 PM 50.0 °F - 48.2 °F 94% 30.01 in 10.0 mi Calm Calm - N/A   Mostly Cloudy
10:56 PM 50.5 °F - 48.6 °F 93% 30.01 in 10.0 mi Calm Calm - N/A   Mostly Cloudy
11:20 PM 50.0 °F - 48.2 °F 94% 30.01 in 10.0 mi Calm Calm - N/A   Overcast
11:44 PM 50.0 °F - 48.2 °F 94% 30.01 in 10.0 mi Calm Calm - N/A   Mostly Cloudy
11:52 PM 50.0 °F - 48.2 °F 94% 30.01 in 10.0 mi Calm Calm - N/A   Scattered Clouds
11:56 PM 49.8 °F - 47.8 °F 93% 30.01 in 10.0 mi Calm Calm - N/A   Scattered Clouds